User: anonymous   Login
Location: Mt. Chestnut Observatory
(40.9038°N, 79.9956°W)
Time: 14:00:34
(UTC-04:00)
Language:

Cosmos 2034 Rocket - Orbit

View from above orbital plane
View from above orbital plane
View from above satellite
View from above satellite

Ground track
Ground track

The orbit data is extracted from the following two-line orbital elements,

1 20150U 89059B   14296.84383808  .00000003  00000-0 -12934-4 0   610
2 20150 082.9383 091.7123 0030170 104.2410 003.5459 13.75582178267399
Epoch (UTC): 23 October 2014 20:15:07
Eccentricity: 0.0030170
inclination: 82.9383°
perigee height: 957 km
apogee height: 1002 km
right ascension of ascending node: 91.7123°
argument of perigee: 104.2410°
revolutions per day: 13.75582178
mean anomaly at epoch: 3.5459°
orbit number at epoch: 26739

The dashed part of the orbit path shows where the satellite is in the earth's shadow,  

DLR